Home   Weather   Saarlouis   Past weeks

Flag for Germany Past Weather in Saarlouis, Saarland, Germany — Yesterday and Last 2 Weeks

Now
39 °F

Clear.


Feels Like: 34 °F
Forecast: 45 / 55 °F
Wind: 7 mph from East

Location: Saarbruecken / Ensheim

Current Time: Apr 30, 2017 at 3:33:46 am

Latest Report: Apr 30, 2017 at 2:50 am


Visibility: N/A

Pressure: 29.95 "Hg

Humidity: 70%

Dew Point: 30 °F

Location of SaarlouisLocation

Past Weather in Saarlouis — Graph

°F

Saarlouis Temperature Yesterday

Maximum temperature yesterday: 57 °F (at 3:50 pm)
Minimum temperature yesterday: 34 °F (at 5:20 am)
Average temperature yesterday: 45 °F

High & Low Weather Summary for the Past Weeks

 TemperatureHumidityPressure
High61 °F (Apr 24, 3:20 pm)100% (Apr 16, 5:50 am)30.57 "Hg (Apr 16, 5:50 am)
Low27 °F (Apr 20, 6:20 am)28% (Apr 20, 5:50 pm)29.74 "Hg (Apr 25, 3:20 am)
Average44 °F65%30.12 "Hg
* Reported Apr 15 2:20 am — Apr 30 2:20 am, Saarlouis, Weather by CustomWeather, © 2017

Note: Actual official high and low records may vary slightly from our data, if they occured in-between our weather recording intervals... More about our weather records

Advertising

Saarlouis Weather History for the Previous 24 Hours

Scroll right to see more
 ConditionsComfort  
Time TempWeatherWind HumidityBarometerVisibility
2:20 am
Sun, Apr 30
39 °FClear.8 mph70%29.95 "HgN/A
1:50 am39 °FClear.6 mph70%29.95 "HgN/A
1:20 am39 °FClear.7 mph75%29.95 "HgN/A
12:50 am41 °FClear.6 mph70%29.95 "HgN/A
12:20 am41 °FClear.7 mph70%29.95 "HgN/A
11:50 pm
Sat, Apr 29
43 °FClear.8 mph71%29.95 "HgN/A
11:20 pm43 °FClear.8 mph61%29.95 "HgN/A
10:50 pm43 °FClear.7 mph61%29.95 "Hg10 mi
10:20 pm45 °FClear.5 mph61%29.98 "Hg10 mi
9:50 pm46 °FClear.3 mph57%29.98 "Hg10 mi
9:20 pm48 °FClear.2 mph54%29.98 "Hg10 mi
8:50 pm50 °FClear.3 mph50%29.95 "Hg10 mi
8:20 pm54 °FSunny.2 mph44%29.95 "Hg10 mi
7:50 pm55 °FPassing clouds.3 mph41%29.98 "HgN/A
7:20 pm57 °FPassing clouds.3 mph39%29.98 "HgN/A
6:50 pm57 °FSunny.5 mph36%29.98 "Hg10 mi
6:20 pm57 °FSunny.3 mph39%29.98 "Hg10 mi
5:50 pm57 °FSunny.2 mph39%29.98 "Hg10 mi
5:20 pm57 °FPassing clouds.5 mph39%29.98 "HgN/A
4:50 pm57 °FSunny.5 mph39%30.01 "Hg10 mi
4:20 pm55 °FSunny.6 mph41%30.01 "Hg10 mi
3:50 pm57 °FScattered clouds.6 mph41%30.01 "HgN/A
2:50 pm52 °FScattered clouds.5 mph50%30.04 "HgN/A
2:20 pm52 °FScattered clouds.5 mph50%30.04 "HgN/A
1:50 pm54 °FPartly sunny.7 mph51%30.04 "HgN/A
12:50 pm50 °FPartly sunny.2 mph58%30.04 "HgN/A
12:20 pm50 °FPartly sunny.3 mph58%30.04 "HgN/A
11:50 am50 °FPartly sunny.3 mph58%30.07 "HgN/A
11:20 am48 °FScattered clouds.2 mph58%30.07 "HgN/A
10:50 am48 °FScattered clouds.5 mph66%30.07 "HgN/A
9:50 am46 °FPassing clouds.2 mph76%30.07 "HgN/A
9:20 am45 °FSunny.2 mph81%30.07 "Hg10 mi
8:50 am43 °FSunny.2 mph81%30.07 "Hg10 mi
8:20 am41 °FScattered clouds.2 mph87%30.07 "HgN/A
7:50 am39 °FScattered clouds.2 mph93%30.04 "HgN/A
7:20 am37 °FClear.No wind93%30.04 "Hg6 mi
6:50 am36 °FClear.No wind93%30.04 "Hg5 mi
6:20 am34 °FFog.2 mph100%30.04 "Hg5 mi
5:50 am36 °FFog.1 mph93%30.04 "Hg5 mi
5:20 am34 °FClear.2 mph100%30.04 "Hg10 mi
4:50 am36 °FClear.2 mph93%30.04 "Hg10 mi
4:20 am36 °FClear.2 mph93%30.04 "Hg10 mi
3:50 am36 °FClear.1 mph100%30.04 "Hg10 mi
3:20 am36 °FPassing clouds.No wind93%30.04 "HgN/A
Weather by CustomWeather, © 2017

See weather overviewHow to use our weather pages